| time (UTC) | temp F | wind direction | speed MPH | gust MPH | rain 1hr in | rain 24hr in | rain mn in | humidity % | barometer mb |
| 20260509193028 | 63 | 251 | 6.0 | 10.0 | 0.00 | 0.00 | 0.00 | 55 | 1006.4 |
| 20260509191524 | 62 | 259 | 6.0 | 11.0 | 0.00 | 0.00 | 0.00 | 47 | 1006.7 |
| 20260509190022 | 63 | 188 | 5.0 | 11.0 | 0.00 | 0.00 | 0.00 | 52 | 1006.9 |
| 20260509184514 | 63 | 195 | 4.0 | 10.0 | 0.00 | 0.00 | 0.00 | 51 | 1007.1 |
| 20260509183014 | 62 | 225 | 6.0 | 10.0 | 0.00 | 0.00 | 0.00 | 46 | 1007.5 |
| 20260509181504 | 61 | 209 | 7.0 | 12.0 | 0.00 | 0.00 | 0.00 | 48 | 1007.5 |
| 20260509180100 | 62 | 165 | 3.0 | 9.0 | 0.00 | 0.00 | 0.00 | 46 | 1007.7 |
| 20260509174556 | 61 | 238 | 4.0 | 9.0 | 0.00 | 0.00 | 0.00 | 35 | 1007.7 |
| 20260509173101 | 60 | 172 | 4.0 | 10.0 | 0.00 | 0.00 | 0.00 | 34 | 1007.8 |
| 20260509171548 | 59 | 234 | 4.0 | 9.0 | 0.00 | 0.00 | 0.00 | 15 | 1008.0 |
| 20260509170042 | 59 | 190 | 5.0 | 11.0 | 0.00 | 0.00 | 0.00 | 28 | 1008.0 |
| 20260509164537 | 59 | 240 | 6.0 | 9.0 | 0.00 | 0.00 | 0.00 | 35 | 1008.3 |
| 20260509163048 | 58 | 226 | 5.0 | 10.0 | 0.00 | 0.00 | 0.00 | 26 | 1008.5 |
| 20260509161528 | 59 | 190 | 4.0 | 9.0 | 0.00 | 0.00 | 0.00 | 17 | 1008.5 |
| 20260509160026 | 58 | 202 | 4.0 | 9.0 | 0.00 | 0.00 | 0.00 | 23 | 1008.7 |
| 20260509154520 | 58 | 226 | 3.0 | 11.0 | 0.00 | 0.00 | 0.00 | 9 | 1008.8 |
| 20260509153020 | 57 | 275 | 4.0 | 9.0 | 0.00 | 0.00 | 0.00 | 20 | 1008.9 |
| 20260509151510 | 57 | 249 | 4.0 | 9.0 | 0.00 | 0.00 | 0.00 | 12 | 1008.9 |
| 20260509150006 | 57 | 228 | 5.0 | 10.0 | 0.00 | 0.00 | 0.00 | 18 | 1009.0 |
| 20260509144502 | 57 | 246 | 6.0 | 14.0 | 0.00 | 0.00 | 0.00 | 10 | 1009.2 |
| 20260509143107 | 57 | 180 | 4.0 | 8.0 | 0.00 | 0.00 | 0.00 | 11 | 1009.3 |
| 20260509141552 | 57 | 242 | 3.0 | 6.0 | 0.00 | 0.00 | 0.00 | 1 | 1009.3 |
| 20260509140050 | 56 | 161 | 4.0 | 7.0 | 0.00 | 0.00 | 0.00 | 1 | 1009.4 |
| 20260509134552 | 55 | 153 | 3.0 | 6.0 | 0.00 | 0.01 | 0.00 | 1 | 1009.6 |
| 20260509133048 | 54 | 198 | 2.0 | 6.0 | 0.00 | 0.01 | 0.00 | 1 | 1009.7 |
| 20260509131535 | 53 | 254 | 4.0 | 7.0 | 0.00 | 0.01 | 0.00 | 1 | 1009.9 |
| 20260509130030 | 53 | 155 | 1.0 | 7.0 | 0.00 | 0.01 | 0.00 | 1 | 1010.0 |
| 20260509124525 | 52 | 238 | 2.0 | 5.0 | 0.00 | 0.02 | 0.00 | 1 | 1010.1 |
| 20260509123022 | 51 | 236 | 1.0 | 5.0 | 0.00 | 0.02 | 0.00 | 1 | 1010.1 |
| 20260509121517 | 50 | 237 | 1.0 | 3.0 | 0.00 | 0.02 | 0.00 | 1 | 1010.1 |
| 20260509120016 | 49 | 159 | 0.0 | 2.0 | 0.00 | 0.02 | 0.00 | 1 | 1010.1 |
| 20260509114508 | 48 | 114 | 0.0 | 2.0 | 0.00 | 0.02 | 0.00 | 1 | 1010.3 |
| 20260509113004 | 46 | 120 | 0.0 | 2.0 | 0.00 | 0.02 | 0.00 | 1 | 1010.3 |
| 20260509111600 | 45 | 114 | 0.0 | 2.0 | 0.00 | 0.02 | 0.00 | 1 | 1010.5 |
| 20260509110058 | 44 | 114 | 0.0 | 2.0 | 0.00 | 0.02 | 0.00 | 1 | 1010.5 |
| 20260509104551 | 43 | 114 | 0.0 | 2.0 | 0.00 | 0.02 | 0.00 | 1 | 1010.4 |
| 20260509103046 | 42 | 114 | 0.0 | 2.0 | 0.00 | 0.02 | 0.00 | 1 | 1010.3 |
| 20260509101541 | 42 | 114 | 0.0 | 1.0 | 0.00 | 0.02 | 0.00 | 1 | 1010.2 |
| 20260509100039 | 41 | 114 | 1.0 | 2.0 | 0.00 | 0.02 | 0.00 | 1 | 1010.2 |
| 20260509094536 | 41 | 130 | 0.0 | 1.0 | 0.00 | 0.02 | 0.00 | 1 | 1010.3 |
| 20260509093029 | 42 | 130 | 0.0 | 1.0 | 0.00 | 0.02 | 0.00 | 1 | 1010.4 |
| 20260509091532 | 42 | 125 | 0.0 | 2.0 | 0.00 | 0.02 | 0.00 | 1 | 1010.2 |
| 20260509090020 | 43 | 191 | 0.0 | 1.0 | 0.00 | 0.02 | 0.00 | 1 | 1010.3 |
| 20260509084521 | 43 | 100 | 0.0 | 2.0 | 0.00 | 0.02 | 0.00 | 1 | 1010.5 |
| 20260509083011 | 42 | 100 | 1.0 | 2.0 | 0.00 | 0.02 | 0.00 | 1 | 1010.6 |
| 20260509081508 | 42 | 96 | 0.0 | 2.0 | 0.00 | 0.02 | 0.00 | 1 | 1011.0 |
| 20260509080002 | 42 | 96 | 0.0 | 1.0 | 0.00 | 0.02 | 0.00 | 1 | 1010.9 |
| 20260509074558 | 41 | 94 | 1.0 | 2.0 | 0.00 | 0.02 | 0.00 | 1 | 1011.1 |
| 20260509073201 | 40 | 75 | 1.0 | 2.0 | 0.00 | 0.02 | 0.00 | 1 | 1011.1 |
| 20260509071550 | 40 | 75 | 0.0 | 0.0 | 0.00 | 0.02 | 0.00 | 1 | 1011.2 |
| 20260509070045 | 40 | 75 | 0.0 | 1.0 | 0.00 | 0.02 | 0.00 | 1 | 1011.3 |
| 20260509064546 | 40 | 75 | 0.0 | 2.0 | 0.00 | 0.02 | 0.00 | 1 | 1011.5 |
| 20260509063036 | 39 | 75 | 0.0 | 2.0 | 0.00 | 0.02 | 0.00 | 1 | 1011.8 |
| 20260509061531 | 40 | 142 | 0.0 | 1.0 | 0.00 | 0.02 | 0.00 | 1 | 1011.9 |
| 20260509060027 | 41 | 131 | 0.0 | 2.0 | 0.00 | 0.02 | 0.00 | 1 | 1012.1 |
| 20260509054530 | 41 | 96 | 0.0 | 2.0 | 0.00 | 0.02 | 0.00 | 1 | 1012.1 |
| 20260509053018 | 42 | 90 | 0.0 | 1.0 | 0.00 | 0.02 | 0.00 | 1 | 1012.4 |
| 20260509051513 | 42 | 90 | 0.0 | 2.0 | 0.00 | 0.02 | 0.00 | 1 | 1012.5 |
| 20260509050012 | 42 | 101 | 0.0 | 2.0 | 0.00 | 0.02 | 0.00 | 1 | 1012.6 |
| 20260509044506 | 42 | 98 | 0.0 | 2.0 | 0.00 | 0.02 | 0.00 | 1 | 1012.7 |
| 20260509043105 | 42 | 92 | 0.0 | 1.0 | 0.00 | 0.02 | 0.00 | 1 | 1012.8 |
| 20260509041556 | 42 | 92 | 0.0 | 3.0 | 0.00 | 0.02 | 0.00 | 1 | 1012.8 |
| 20260509034548 | 41 | 92 | 0.0 | 0.0 | 0.00 | 0.02 | 0.02 | 1 | 1012.8 |
| 20260509033043 | 41 | 92 | 0.0 | 0.0 | 0.00 | 0.02 | 0.02 | 1 | 1012.9 |
| 20260509031539 | 42 | 92 | 0.0 | 1.0 | 0.00 | 0.02 | 0.02 | 1 | 1012.8 |
| 20260509030039 | 42 | 92 | 0.0 | 1.0 | 0.00 | 0.02 | 0.02 | 3 | 1012.9 |
| 20260509024530 | 42 | 92 | 0.0 | 0.0 | 0.00 | 0.02 | 0.02 | 6 | 1012.9 |
| 20260509023027 | 42 | 92 | 1.0 | 3.0 | 0.00 | 0.02 | 0.02 | 6 | 1013.0 |
| 20260509021524 | 43 | 119 | 0.0 | 2.0 | 0.00 | 0.02 | 0.02 | 3 | 1013.1 |
| 20260509020017 | 44 | 119 | 0.0 | 1.0 | 0.00 | 0.02 | 0.02 | 1 | 1013.2 |
| 20260509014514 | 44 | 119 | 0.0 | 2.0 | 0.00 | 0.02 | 0.02 | 22 | 1013.1 |
| 20260509013025 | 44 | 90 | 1.0 | 2.0 | 0.00 | 0.02 | 0.02 | 25 | 1012.9 |
| 20260509011504 | 45 | 103 | 0.0 | 2.0 | 0.00 | 0.02 | 0.02 | 49 | 1012.6 |
| 20260509010057 | 48 | 115 | 0.0 | 1.0 | 0.00 | 0.02 | 0.02 | 59 | 1012.4 |
| 20260509004611 | 48 | 115 | 0.0 | 2.0 | 0.00 | 0.02 | 0.02 | 56 | 1012.2 |
| 20260509003052 | 48 | 88 | 2.0 | 3.0 | 0.00 | 0.02 | 0.02 | 53 | 1012.0 |
| 20260509001545 | 50 | 348 | 0.0 | 2.0 | 0.00 | 0.02 | 0.02 | 56 | 1012.0 |
| 20260509000042 | 52 | 348 | 0.0 | 1.0 | 0.00 | 0.02 | 0.02 | 50 | 1011.9 |
| 20260508234538 | 53 | 329 | 0.0 | 4.0 | 0.00 | 0.02 | 0.02 | 50 | 1011.7 |
| 20260508233033 | 54 | 324 | 1.0 | 3.0 | 0.00 | 0.02 | 0.02 | 49 | 1011.5 |
| 20260508231527 | 54 | 296 | 3.0 | 8.0 | 0.00 | 0.02 | 0.02 | 48 | 1011.5 |
| 20260508230037 | 55 | 325 | 4.0 | 8.0 | 0.00 | 0.02 | 0.02 | 47 | 1011.5 |
| 20260508224519 | 55 | 9 | 0.0 | 2.0 | 0.00 | 0.02 | 0.02 | 46 | 1011.6 |
| 20260508223020 | 55 | 298 | 1.0 | 5.0 | 0.00 | 0.02 | 0.02 | 44 | 1011.6 |
| 20260508221509 | 54 | 13 | 2.0 | 5.0 | 0.00 | 0.02 | 0.02 | 49 | 1011.5 |
| 20260508220012 | 55 | 302 | 3.0 | 10.0 | 0.00 | 0.02 | 0.02 | 43 | 1011.5 |
| 20260508214601 | 55 | 140 | 0.0 | 9.0 | 0.00 | 0.02 | 0.02 | 45 | 1011.7 |
| 20260508213056 | 55 | 42 | 2.0 | 10.0 | 0.00 | 0.02 | 0.02 | 46 | 1011.8 |
| 20260508211552 | 55 | 271 | 4.0 | 11.0 | 0.00 | 0.02 | 0.02 | 48 | 1011.9 |
| 20260508210104 | 55 | 271 | 8.0 | 15.0 | 0.00 | 0.02 | 0.02 | 46 | 1011.9 |
| 20260508204542 | 55 | 292 | 3.0 | 15.0 | 0.00 | 0.02 | 0.02 | 45 | 1012.0 |
| 20260508203038 | 55 | 322 | 7.0 | 13.0 | 0.00 | 0.02 | 0.02 | 49 | 1012.3 |
| 20260508201533 | 54 | 286 | 7.0 | 12.0 | 0.00 | 0.02 | 0.02 | 52 | 1012.5 |
| 20260508200038 | 54 | 301 | 7.0 | 11.0 | 0.00 | 0.02 | 0.02 | 52 | 1012.7 |
| 20260508194524 | 53 | 315 | 5.0 | 13.0 | 0.00 | 0.02 | 0.02 | 53 | 1012.7 |